MSR67 HELX-HECA

Flight info

Callsign MSR67
Flight time N/A
Altitude 24000
Route LXR A727 CVO
Aircraft B77W/H-SDE1E2E3FGHIJ2J3J4J5M1RWXY/LB1D1

Departure

Time 2026-05-01 15:01
Airport Luxor International Airport (HELX)

Arrival

Time N/A
Airport Cairo International Airport (HECA)
Time Latitude Longitude Altitude Speed Heading
2026-05-01 14:30 25.67459 32.70225 299 ft 0 kts 298°
2026-05-01 14:51 25.67451 32.70243 299 ft 2 kts 298°
2026-05-01 14:52 25.67436 32.70274 300 ft 2 kts 298°
2026-05-01 14:52 25.67429 32.70289 300 ft 1 kts 298°
2026-05-01 14:52 25.67425 32.70324 300 ft 2 kts 247°
2026-05-01 14:53 25.67435 32.70341 300 ft 2 kts 219°
2026-05-01 14:53 25.67444 32.70347 300 ft 1 kts 207°
2026-05-01 14:53 25.67444 32.70348 300 ft 0 kts 207°
2026-05-01 14:55 25.67433 32.70342 300 ft 5 kts 203°
2026-05-01 14:55 25.67387 32.70318 301 ft 6 kts 206°
2026-05-01 14:56 25.67347 32.70296 301 ft 6 kts 207°
2026-05-01 14:56 25.67298 32.70268 301 ft 7 kts 207°
2026-05-01 14:56 25.67242 32.70237 300 ft 9 kts 207°
2026-05-01 14:56 25.67175 32.70200 302 ft 9 kts 206°
2026-05-01 14:57 25.67110 32.70169 303 ft 8 kts 188°
2026-05-01 14:57 25.67044 32.70257 304 ft 9 kts 114°
2026-05-01 14:57 25.67010 32.70333 305 ft 9 kts 117°
2026-05-01 14:58 25.66974 32.70390 307 ft 7 kts 150°
2026-05-01 14:58 25.66922 32.70387 308 ft 7 kts 203°
2026-05-01 14:58 25.66855 32.70355 308 ft 11 kts 202°
2026-05-01 14:58 25.66768 32.70314 309 ft 14 kts 204°
2026-05-01 14:59 25.66649 32.70260 311 ft 17 kts 203°
2026-05-01 14:59 25.66497 32.70190 312 ft 25 kts 202°
2026-05-01 14:59 25.66306 32.70101 315 ft 25 kts 202°
2026-05-01 14:59 25.66140 32.70025 319 ft 22 kts 204°
2026-05-01 15:00 25.65917 32.69949 320 ft 7 kts 141°
2026-05-01 15:00 25.65886 32.70003 321 ft 6 kts 113°
2026-05-01 15:00 25.65880 32.70062 321 ft 8 kts 70°
2026-05-01 15:01 25.65957 32.70116 321 ft 25 kts 24°
2026-05-01 15:01 25.66451 32.70348 315 ft 121 kts 21°
2026-05-01 15:01 25.67539 32.70836 782 ft 164 kts 20°
2026-05-01 15:01 25.68601 32.71577 1913 ft 166 kts 46°
2026-05-01 15:02 25.69328 32.72679 2584 ft 177 kts 38°
2026-05-01 15:02 25.69677 32.72997 2752 ft 183 kts 31°
2026-05-01 15:02 25.71882 32.74575 3950 ft 217 kts 30°
2026-05-01 15:02 25.73293 32.75626 4724 ft 236 kts 30°
2026-05-01 15:03 25.74928 32.76395 5515 ft 248 kts
2026-05-01 15:03 25.76702 32.76337 6547 ft 250 kts 346°
2026-05-01 15:03 25.78476 32.75809 7429 ft 263 kts 343°
2026-05-01 15:03 25.80393 32.75198 8583 ft 268 kts 342°
2026-05-01 15:04 25.82402 32.74572 9806 ft 272 kts 342°
2026-05-01 15:04 25.84441 32.73942 10752 ft 286 kts 342°
2026-05-01 15:04 25.86593 32.73277 11502 ft 306 kts 342°
2026-05-01 15:04 25.88937 32.72555 12312 ft 325 kts 342°
2026-05-01 15:05 25.91405 32.71795 13301 ft 338 kts 342°
2026-05-01 15:05 25.93895 32.71028 14430 ft 345 kts 341°
2026-05-01 15:05 25.96212 32.70314 15389 ft 353 kts 341°
2026-05-01 15:05 25.98609 32.69574 16372 ft 361 kts 340°
2026-05-01 15:06 26.01033 32.68825 17287 ft 369 kts 340°
2026-05-01 15:06 26.03526 32.68055 18272 ft 375 kts 340°
2026-05-01 15:06 26.06019 32.67285 19344 ft 377 kts 339°
2026-05-01 15:06 26.08545 32.66505 20415 ft 379 kts 340°
2026-05-01 15:07 26.11079 32.65722 21434 ft 381 kts 339°
2026-05-01 15:07 26.13647 32.64927 22376 ft 385 kts 339°
2026-05-01 15:07 26.16235 32.64125 23247 ft 389 kts 340°
2026-05-01 15:07 26.18842 32.63318 23808 ft 388 kts 340°
2026-05-01 15:08 26.21507 32.62490 23903 ft 405 kts 340°
2026-05-01 15:08 26.24310 32.61617 23912 ft 427 kts 340°
2026-05-01 15:08 26.27289 32.60691 23919 ft 448 kts 340°
2026-05-01 15:08 26.30418 32.59721 23913 ft 457 kts 340°
2026-05-01 15:09 26.33581 32.58743 23926 ft 454 kts 341°
2026-05-01 15:09 26.36780 32.57751 23935 ft 457 kts 341°
2026-05-01 15:09 26.39901 32.56783 23940 ft 454 kts 341°
2026-05-01 15:09 26.43036 32.55809 23953 ft 457 kts 341°
2026-05-01 15:10 26.46229 32.54816 23955 ft 455 kts 341°
2026-05-01 15:10 26.52496 32.52864 23958 ft 457 kts 341°
2026-05-01 15:10 26.55592 32.51899 23974 ft 457 kts 341°
2026-05-01 15:11 26.58697 32.50931 23970 ft 456 kts 341°
2026-05-01 15:11 26.64975 32.48970 23978 ft 456 kts 341°
2026-05-01 15:11 26.68184 32.47967 23980 ft 456 kts 341°
2026-05-01 15:12 26.71527 32.46922 23978 ft 456 kts 341°
2026-05-01 15:12 26.78105 32.44863 23982 ft 455 kts 341°
2026-05-01 15:12 26.81402 32.43829 23982 ft 455 kts 341°
2026-05-01 15:13 26.91450 32.40677 23987 ft 459 kts 341°
2026-05-01 15:14 26.98094 32.38589 23990 ft 460 kts 341°
2026-05-01 15:14 27.01386 32.37555 23981 ft 455 kts 341°
2026-05-01 15:14 27.07889 32.35498 23992 ft 459 kts 341°
2026-05-01 15:15 27.14243 32.33491 24016 ft 456 kts 341°
2026-05-01 15:15 27.20693 32.31453 24015 ft 456 kts 341°
2026-05-01 15:16 27.27417 32.29326 24026 ft 458 kts 341°
2026-05-01 15:16 27.33807 32.27305 24016 ft 458 kts 340°
2026-05-01 15:17 27.40098 32.25314 24020 ft 458 kts 341°
2026-05-01 15:18 27.49330 32.22388 24013 ft 457 kts 341°
2026-05-01 15:18 27.52436 32.21402 24003 ft 459 kts 341°
2026-05-01 15:19 27.61713 32.18455 24007 ft 457 kts 340°
2026-05-01 15:19 27.68179 32.16397 24003 ft 458 kts 340°
2026-05-01 15:19 27.71394 32.15373 24005 ft 458 kts 340°
2026-05-01 15:20 27.77743 32.13349 24000 ft 459 kts 341°
2026-05-01 15:20 27.80931 32.12332 23997 ft 457 kts 340°
2026-05-01 15:20 27.84157 32.11302 24009 ft 457 kts 340°
2026-05-01 15:21 27.87331 32.10288 24009 ft 458 kts 340°
2026-05-01 15:21 27.90536 32.09264 24004 ft 455 kts 340°
2026-05-01 15:21 27.93673 32.08260 24011 ft 458 kts 341°
2026-05-01 15:21 27.96921 32.07221 24013 ft 456 kts 341°
2026-05-01 15:22 28.03300 32.05177 24006 ft 458 kts 340°
2026-05-01 15:22 28.06508 32.04165 24008 ft 456 kts 341°
2026-05-01 15:22 28.09747 32.03153 24006 ft 458 kts 341°
2026-05-01 15:23 28.12896 32.02168 24006 ft 458 kts 341°
2026-05-01 15:23 28.16135 32.01154 24003 ft 459 kts 341°
2026-05-01 15:23 28.19372 32.00140 24003 ft 456 kts 341°
2026-05-01 15:23 28.22673 31.99105 23999 ft 457 kts 341°
2026-05-01 15:24 28.25874 31.98100 23998 ft 455 kts 341°
2026-05-01 15:24 28.29119 31.97081 23998 ft 456 kts 341°
2026-05-01 15:24 28.32298 31.96082 24000 ft 457 kts 341°
2026-05-01 15:24 28.35540 31.95061 23999 ft 459 kts 341°
2026-05-01 15:25 28.38695 31.94068 23998 ft 457 kts 341°
2026-05-01 15:25 28.41767 31.93100 24000 ft 459 kts 341°
2026-05-01 15:25 28.44829 31.92135 24003 ft 455 kts 341°
2026-05-01 15:25 28.47916 31.91162 24000 ft 458 kts 341°
2026-05-01 15:26 28.51001 31.90188 23999 ft 456 kts 341°
2026-05-01 15:26 28.54058 31.89223 23998 ft 456 kts 341°
2026-05-01 15:26 28.57114 31.88258 23995 ft 456 kts 341°
2026-05-01 15:26 28.60172 31.87290 23996 ft 459 kts 341°
2026-05-01 15:27 28.63261 31.86313 23991 ft 454 kts 341°
2026-05-01 15:27 28.66326 31.85343 23992 ft 460 kts 341°
2026-05-01 15:27 28.69681 31.84281 23982 ft 454 kts 340°
2026-05-01 15:28 28.76422 31.82143 23969 ft 457 kts 340°
2026-05-01 15:28 28.79796 31.81072 23964 ft 456 kts 341°
2026-05-01 15:28 28.83268 31.79969 23952 ft 457 kts 341°
2026-05-01 15:29 28.90019 31.77823 23942 ft 456 kts 340°
2026-05-01 15:29 28.93305 31.76780 23616 ft 443 kts 341°
2026-05-01 15:29 28.99342 31.74857 22358 ft 431 kts 340°
2026-05-01 15:30 29.04253 31.73269 21374 ft 420 kts 340°
2026-05-01 15:31 29.16420 31.69324 18948 ft 396 kts 340°
2026-05-01 15:31 29.21838 31.67564 17841 ft 386 kts 340°
2026-05-01 15:32 29.27166 31.65832 16751 ft 378 kts 340°
2026-05-01 15:32 29.32353 31.64145 15657 ft 371 kts 340°
2026-05-01 15:33 29.39962 31.61666 14011 ft 361 kts 340°
2026-05-01 15:34 29.47486 31.59211 12371 ft 352 kts 341°